TimeCDT,TemperatureF,Dew PointF,Humidity,Sea Level PressureIn,VisibilityMPH,Wind Direction,Wind SpeedMPH,Gust SpeedMPH,PrecipitationIn,Events,Conditions,WindDirDegrees,DateUTC
12:54 AM,51.1,48.0,89,30.08,10.0,ESE,11.5,-,N/A,,Overcast,110,2013-05-18 05:54:00
1:54 AM,50.0,48.0,93,30.09,10.0,East,6.9,-,N/A,,Overcast,90,2013-05-18 06:54:00
2:54 AM,50.0,48.0,93,30.08,10.0,East,8.1,-,N/A,,Overcast,90,2013-05-18 07:54:00
3:54 AM,50.0,48.0,93,30.07,10.0,East,6.9,-,N/A,,Overcast,100,2013-05-18 08:54:00
4:54 AM,50.0,48.0,93,30.06,10.0,East,6.9,-,N/A,,Mostly Cloudy,100,2013-05-18 09:54:00
5:54 AM,50.0,46.9,89,30.06,10.0,East,9.2,-,N/A,,Clear,100,2013-05-18 10:54:00
6:54 AM,51.1,48.0,89,30.07,10.0,ESE,8.1,-,N/A,,Clear,110,2013-05-18 11:54:00
7:54 AM,52.0,48.0,86,30.06,10.0,ESE,10.4,-,N/A,,Clear,110,2013-05-18 12:54:00
8:54 AM,55.9,50.0,80,30.07,10.0,ESE,9.2,-,N/A,,Clear,120,2013-05-18 13:54:00
9:54 AM,60.1,52.0,75,30.07,10.0,ESE,9.2,-,N/A,,Clear,120,2013-05-18 14:54:00
10:54 AM,64.0,55.0,73,30.05,10.0,SE,6.9,-,N/A,,Clear,140,2013-05-18 15:54:00
11:32 AM,64.4,55.4,73,30.04,10.0,Variable,5.8,-,N/A,,Mostly Cloudy,0,2013-05-18 16:32:00
11:49 AM,68.0,57.2,68,30.04,9.0,SSE,9.2,-,N/A,,Mostly Cloudy,160,2013-05-18 16:49:00
11:54 AM,66.0,57.0,73,30.05,9.0,South,9.2,-,N/A,,Mostly Cloudy,170,2013-05-18 16:54:00
12:54 PM,68.0,57.9,70,30.03,10.0,SE,10.4,-,N/A,,Mostly Cloudy,130,2013-05-18 17:54:00
2:54 PM,73.0,61.0,66,29.97,9.0,SE,11.5,-,N/A,,Scattered Clouds,140,2013-05-18 19:54:00
3:54 PM,73.0,61.0,66,29.94,8.0,SSE,11.5,-,N/A,,Clear,160,2013-05-18 20:54:00
4:54 PM,73.9,61.0,64,29.94,10.0,SSE,12.7,-,N/A,,Clear,160,2013-05-18 21:54:00
5:54 PM,75.0,62.1,64,29.94,10.0,SSE,12.7,-,N/A,,Scattered Clouds,160,2013-05-18 22:54:00
6:54 PM,73.9,61.0,64,29.92,10.0,SSE,10.4,-,N/A,,Partly Cloudy,150,2013-05-18 23:54:00
7:54 PM,72.0,61.0,68,29.94,9.0,SSE,6.9,-,N/A,,Partly Cloudy,150,2013-05-19 00:54:00
8:54 PM,68.0,61.0,78,29.94,8.0,ESE,4.6,-,N/A,,Clear,120,2013-05-19 01:54:00
9:54 PM,66.9,60.1,79,29.94,7.0,Calm,Calm,-,N/A,,Mostly Cloudy,0,2013-05-19 02:54:00
11:54 PM,64.9,60.1,84,29.91,6.0,SE,6.9,-,N/A,,Haze,140,2013-05-19 04:54:00